Wetbulb
70.60 72.24 72.52 73.21 72.98 72.88 73.08 73.07 73.08 73.12 73.53 73.73 73.93 73.82 73.78 73.67 73.55 73.46 73.44 73.27 73.21 72.62 72.39 72.22 71.56 71.21 71.11 70.89 70.62 70.64 70.66 71.21 71.39 70.45 69.46 69.03 69.43 69.64 69.57 69.47 70.08 69.35 69.94
72.64 72.37 72.09 72.84 72.58 72.46 72.93 72.97 73.22 73.23 73.63 73.83 73.60 73.51 73.19 73.40 73.38 72.93 73.09 73.01 72.62 71.71 71.64 71.58 71.33 70.54 70.45 70.77 70.44 70.18 70.44 70.47 70.78 70.03 68.49 68.83 68.30 68.92 68.78 68.44 69.74 69.07 69.21
73.28 72.79 72.79 72.03 72.13 72.48 72.96 73.13 73.35 73.74 73.63 73.56 73.33 73.25 73.15 72.94 72.85 72.72 72.82 72.76 72.57 71.59 71.39 70.83 70.49 70.06 70.08 70.17 69.78 69.47 69.34 69.24 69.28 68.85 68.57 69.59 68.27 67.80 67.64 67.96 69.15 69.59 69.11
73.77 73.41 72.40 71.43 71.77 72.33 72.39 72.72 72.82 73.23 73.39 73.23 73.01 73.03 73.11 72.70 72.57 72.41 72.33 72.40 72.30 71.40 71.49 70.66 69.80 69.72 69.77 69.86 69.69 68.09 66.54 66.10 66.10 67.96 69.98 68.84 68.10 67.88 67.48 66.85 66.88 67.15 67.36
73.85 74.22 73.11 71.24 71.28 72.12 72.34 72.44 72.47 72.56 72.55 72.63 72.63 72.86 72.92 72.76 72.28 72.11 72.16 72.27 72.37 71.40 71.63 71.14 69.60 68.38 67.97 67.78 67.07 66.03 65.43 66.18 65.56 66.79 68.42 69.18 68.29 68.67 67.93 67.45 66.33 66.13 67.40
73.65 74.63 71.23 70.63 71.14 71.91 72.46 72.41 72.32 72.26 72.00 72.05 72.23 72.65 72.85 72.15 71.93 71.64 71.71 72.06 72.05 71.43 71.34 70.69 69.48 68.22 67.62 67.18 66.42 65.82 64.78 64.76 66.11 68.17 70.12 68.49 68.95 67.73 67.68 67.55 67.21 66.65 66.53
72.92 74.47 73.30 70.14 71.00 71.76 72.23 72.13 71.74 71.36 71.35 71.67 72.09 72.30 72.59 72.27 71.53 71.31 71.22 71.35 71.24 71.04 70.57 70.35 69.27 68.17 67.70 67.24 66.56 65.73 64.95 64.46 67.55 68.66 69.87 69.54 69.32 66.87 67.57 67.17 66.39 66.20 65.67
73.02 73.91 73.97 71.51 71.16 71.62 71.35 70.90 70.36 70.43 70.61 70.89 71.29 71.76 72.07 71.64 71.03 70.86 70.64 70.39 70.42 70.00 70.23 70.08 69.21 68.54 67.98 67.28 66.53 65.48 64.63 64.60 67.28 68.65 68.76 70.15 67.04 66.56 66.06 67.31 66.84 66.01 65.65
73.41 73.53 74.12 73.86 72.83 70.71 69.83 69.46 68.96 69.34 69.66 69.88 70.35 70.60 70.48 70.10 69.87 70.11 70.08 69.82 69.53 69.49 69.37 69.11 68.86 68.32 68.06 67.57 66.91 65.53 64.94 64.90 67.96 69.20 67.83 68.50 66.49 66.91 66.95 66.87 67.20 66.57 65.79
73.08 73.69 74.04 74.37 73.86 73.66 73.32 68.88 68.67 68.62 68.71 69.01 69.37 69.35 68.77 68.63 68.89 68.90 69.07 69.43 69.13 68.92 68.60 68.19 68.20 68.02 67.93 67.62 67.16 66.32 65.54 66.08 68.41 68.21 68.45 69.26 65.27 66.09 67.72 67.34 67.04 67.01 66.72
70.47 71.90 72.46 73.72 74.34 74.34 73.86 72.21 69.34 69.17 69.23 69.01 69.51 69.00 68.41 72.10 71.03 69.75 68.12 68.63 69.01 68.68 68.20 67.90 67.75 67.60 67.27 67.03 67.22 66.27 65.62 68.72 68.71 68.22 68.20 65.69 64.36 65.81 67.11 67.86 68.32 67.30 66.78
69.61 69.67 70.81 73.38 74.02 74.23 73.13 73.36 73.58 72.83 72.85 72.78 72.68 72.40 72.68 73.23 72.55 71.18 68.61 67.81 68.11 68.51 68.23 68.06 67.70 67.24 66.84 70.57 69.88 66.19 69.05 69.45 69.18 68.85 68.52 64.46 63.67 65.21 66.08 67.38 68.61 67.70 67.02
70.60 69.93 69.49 70.08 70.82 71.46 71.58 70.40 70.73 70.79 71.07 73.03 73.33 73.07 72.73 72.01 72.02 71.28 71.42 70.25 70.78 68.35 69.96 68.97 69.51 69.89 69.23 70.68 70.38 70.28 70.10 69.81 69.77 69.50 68.72 64.48 64.27 65.82 66.48 66.49 67.78 68.30 67.73
70.50 69.15 68.99 69.60 69.32 69.91 70.16 70.12 71.10 70.72 70.65 71.98 72.67 73.12 72.12 71.43 71.28 71.60 71.50 72.23 70.99 71.44 70.90 69.93 70.57 71.08 70.53 70.75 70.60 70.28 70.18 69.94 69.86 69.84 69.21 63.91 64.06 65.19 66.49 66.92 67.38 68.12 67.81
70.49 70.21 68.77 68.96 68.90 69.05 70.34 70.46 70.08 70.55 70.25 72.30 71.96 72.24 72.56 71.95 71.75 71.83 72.18 72.05 72.41 72.58 71.56 70.78 70.25 69.78 69.61 69.90 69.51 68.17 68.30 69.32 69.58 69.38 69.70 63.94 63.10 64.11 65.49 66.78 67.35 67.82 68.56
71.19 71.25 70.29 68.51 68.93 69.03 68.46 68.70 69.49 71.07 71.77 71.56 71.36 71.87 71.93 72.14 71.39 70.31 70.61 69.07 69.59 70.65 71.05 70.08 69.80 69.94 69.41 69.11 68.63 69.24 69.03 69.02 69.61 69.75 69.85 69.27 62.81 63.25 63.96 65.59 66.55 67.32 67.91
71.47 72.15 71.33 71.08 71.29 70.72 71.25 70.84 70.92 70.90 70.71 70.53 71.43 72.36 72.32 71.62 71.99 71.24 71.25 69.91 67.97 68.52 69.45 68.74 70.22 68.04 67.52 67.25 67.03 67.30 68.35 68.57 68.18 68.59 68.92 69.59 68.57 61.82 62.55 63.58 64.66 66.09 67.05
71.88 71.86 72.02 71.22 71.72 71.47 71.22 70.83 70.45 70.82 71.89 70.86 71.22 70.54 71.04 70.92 70.84 69.84 68.83 68.27 69.21 69.67 69.72 69.12 68.08 66.61 66.26 65.33 64.45 64.52 64.88 65.82 66.03 66.81 67.54 68.25 68.35 67.67 64.15 62.21 63.20 64.33 65.38
71.91 72.21 71.81 71.93 71.39 71.32 70.96 71.54 72.10 71.44 70.37 69.86 69.27 68.66 67.77 67.25 68.10 67.37 66.22 65.61 66.61 66.07 65.89 65.14 64.21 63.23 61.27 61.11 60.58 60.31 60.77 61.16 60.62 59.98 61.78 63.68 65.25 66.22 66.97 63.99 61.79 61.76 62.82
71.68 72.40 72.37 71.84 71.49 71.18 70.86 70.37 69.52 68.57 65.34 64.46 64.96 65.38 65.54 64.89 64.15 63.65 63.19 63.71 64.75 64.45 64.32 62.75 62.22 62.33 61.49 60.76 59.44 58.91 60.10 60.12 60.47 61.55 61.27 62.20 62.56 63.53 64.40 64.32 64.36 63.63 60.48
71.51 71.54 71.04 70.63 69.86 69.93 67.00 66.81 65.14 60.45 62.87 62.84 62.99 62.77 62.31 62.10 62.11 61.71 61.36 62.34 63.47 61.95 61.99 62.12 60.80 59.87 59.09 59.90 57.35 56.46 56.33 58.11 59.48 60.31 60.59 59.56 59.84 60.30 60.33 60.22 60.73 61.22 61.92
69.80 69.49 69.40 70.73 70.36 70.08 68.28 66.65 66.60 64.85 63.05 61.56 61.11 61.48 61.48 61.15 61.57 60.52 60.88 61.03 60.99 60.74 60.15 59.58 58.27 56.04 55.35 55.90 53.05 51.76 50.27 52.42 55.66 57.21 55.84 58.29 57.96 59.04 57.70 57.68 57.94 58.52 59.32
68.30 68.37 68.67 70.05 69.49 70.20 69.21 66.13 63.42 61.68 59.58 58.07 58.43 58.49 59.67 60.32 60.46 60.28 59.37 58.97 58.44 57.78 56.43 56.24 54.89 53.79 51.54 52.82 53.96 51.03 47.98 46.51 49.84 52.92 53.00 54.30 55.66 54.23 55.52 56.05 55.78 56.69 56.67
67.76 68.27 68.66 69.11 69.70 67.10 66.60 62.13 60.33 58.59 56.67 57.30 57.88 58.13 58.80 59.39 59.26 58.78 57.93 57.35 57.02 56.17 54.90 54.18 53.36 53.49 52.43 49.92 51.38 51.58 52.38 51.30 46.59 45.76 50.73 51.35 51.78 51.55 52.88 53.44 53.82 54.11 54.98
67.41 66.95 66.20 67.21 63.55 61.34 58.62 61.96 59.67 58.84 57.78 57.30 57.20 57.82 58.29 58.72 58.08 56.67 56.50 55.98 55.98 55.94 54.39 53.49 53.23 52.63 52.21 50.96 50.24 50.00 50.27 50.12 50.21 46.72 43.96 47.02 49.73 50.98 51.91 52.60 53.31 53.84 54.57
65.28 63.83 58.51 58.76 55.75 56.27 58.08 57.45 57.31 57.50 56.15 55.39 56.23 56.31 56.43 56.21 56.24 55.81 54.94 56.67 56.12 55.18 54.07 54.17 54.25 53.56 53.14 52.72 51.89 51.16 49.97 48.22 47.49 46.78 45.56 46.57 47.11 49.39 51.07 52.01 52.57 53.40 53.87
MSLP
1012.29 1013.59 1015.05 1015.51 1015.84 1016.02 1016.12 1016.29 1016.40 1016.72 1017.16 1017.47 1017.64 1017.82 1017.98 1018.21 1018.32 1018.38 1018.48 1018.53 1018.59 1018.66 1018.65 1018.76 1018.85 1018.80 1018.90 1019.05 1019.14 1019.21 1019.18 1019.16 1019.07 1019.01 1018.95 1018.91 1018.88 1018.80 1018.67 1018.45 1018.16 1017.51 1018.21
1012.39 1013.90 1015.20 1015.63 1015.99 1016.23 1016.42 1016.55 1016.73 1016.98 1017.32 1017.51 1017.75 1018.03 1018.24 1018.47 1018.53 1018.66 1018.78 1018.83 1018.83 1018.85 1018.91 1018.97 1019.05 1019.17 1019.30 1019.44 1019.53 1019.47 1019.50 1019.54 1019.46 1019.34 1019.17 1018.87 1019.12 1019.10 1019.04 1018.85 1018.60 1018.57 1018.67
1012.82 1013.92 1014.98 1015.69 1016.10 1016.44 1016.65 1016.75 1016.94 1017.13 1017.42 1017.72 1017.94 1018.17 1018.43 1018.56 1018.66 1018.85 1018.89 1018.92 1018.92 1018.97 1019.03 1019.17 1019.26 1019.35 1019.49 1019.64 1019.64 1019.73 1019.84 1019.84 1019.75 1019.49 1018.93 1017.95 1018.71 1019.46 1019.43 1019.33 1019.25 1019.17 1019.07
1013.01 1014.05 1014.67 1015.79 1016.22 1016.57 1016.72 1016.83 1017.03 1017.32 1017.63 1017.84 1018.10 1018.31 1018.43 1018.57 1018.72 1018.89 1019.01 1019.05 1019.10 1019.17 1019.23 1019.39 1019.56 1019.72 1019.83 1019.92 1019.96 1019.95 1019.91 1019.86 1019.87 1019.47 1018.29 1017.98 1018.19 1019.66 1019.73 1019.70 1019.61 1019.61 1019.50
1013.17 1013.90 1014.87 1015.89 1016.34 1016.72 1016.83 1017.00 1017.20 1017.48 1017.83 1017.95 1018.21 1018.45 1018.64 1018.80 1018.94 1019.03 1019.14 1019.24 1019.28 1019.30 1019.37 1019.56 1019.81 1020.05 1020.17 1020.20 1020.16 1020.16 1020.09 1020.04 1019.84 1019.17 1018.18 1018.34 1018.23 1019.50 1019.84 1019.86 1019.84 1019.88 1019.83
1013.23 1013.86 1015.53 1016.07 1016.47 1016.84 1017.02 1017.24 1017.41 1017.55 1017.77 1018.04 1018.33 1018.53 1018.72 1018.92 1019.06 1019.18 1019.22 1019.27 1019.25 1019.38 1019.53 1019.74 1019.91 1020.01 1020.15 1020.25 1020.34 1020.41 1020.36 1020.08 1019.67 1018.29 1018.71 1018.94 1018.75 1019.64 1019.83 1019.95 1020.00 1020.04 1020.07
1013.24 1014.11 1015.68 1016.22 1016.63 1016.88 1017.05 1017.40 1017.55 1017.62 1017.84 1018.06 1018.28 1018.52 1018.71 1018.88 1019.09 1019.29 1019.38 1019.42 1019.41 1019.50 1019.58 1019.80 1020.09 1020.19 1020.31 1020.34 1020.32 1020.31 1020.29 1020.14 1019.16 1018.63 1018.53 1018.53 1018.84 1019.78 1019.82 1019.91 1019.99 1020.02 1020.03
1013.55 1014.60 1015.50 1016.47 1016.71 1017.07 1017.26 1017.48 1017.62 1017.75 1017.92 1018.10 1018.32 1018.54 1018.74 1018.93 1019.14 1019.34 1019.50 1019.61 1019.69 1019.77 1019.86 1019.99 1020.18 1020.32 1020.38 1020.46 1020.53 1020.52 1020.35 1020.11 1019.07 1018.72 1018.44 1018.24 1019.46 1019.83 1019.84 1019.91 1019.88 1019.89 1019.87
1014.17 1014.79 1015.22 1015.97 1016.58 1017.09 1017.30 1017.52 1017.66 1017.82 1017.98 1018.20 1018.40 1018.67 1019.01 1019.21 1019.38 1019.51 1019.64 1019.79 1019.89 1019.97 1020.05 1020.15 1020.27 1020.34 1020.37 1020.37 1020.41 1020.39 1020.31 1020.16 1019.21 1018.39 1018.48 1018.14 1019.25 1019.66 1019.66 1019.73 1019.78 1019.80 1019.81
1014.49 1014.85 1015.07 1015.54 1016.16 1016.51 1017.04 1017.65 1017.78 1017.89 1018.05 1018.25 1018.57 1018.89 1019.18 1019.39 1019.54 1019.70 1019.82 1019.82 1019.91 1020.01 1020.13 1020.22 1020.35 1020.41 1020.40 1020.39 1020.35 1020.32 1020.27 1019.98 1019.01 1018.43 1018.26 1018.10 1019.24 1019.60 1019.55 1019.46 1019.56 1019.59 1019.67
1014.72 1015.02 1015.55 1015.40 1015.63 1016.11 1016.53 1017.27 1018.01 1018.23 1018.41 1018.63 1018.87 1019.12 1019.16 1018.29 1018.84 1019.20 1019.43 1019.72 1019.91 1019.97 1020.01 1020.13 1020.25 1020.36 1020.35 1020.17 1020.20 1020.28 1020.26 1018.62 1018.50 1018.20 1017.97 1018.64 1019.26 1019.41 1019.39 1019.36 1019.35 1019.46 1019.59
1014.35 1015.07 1015.46 1015.29 1015.44 1015.79 1015.93 1016.94 1017.20 1017.53 1017.76 1017.81 1017.96 1018.48 1018.12 1018.36 1018.30 1018.63 1019.17 1019.73 1019.89 1019.93 1019.96 1019.97 1020.04 1020.09 1019.93 1018.40 1018.77 1019.64 1018.82 1018.52 1018.49 1018.10 1017.85 1018.62 1019.09 1019.15 1019.09 1019.03 1019.01 1019.08 1019.13
1013.73 1014.92 1015.45 1015.84 1016.14 1016.33 1016.22 1017.11 1017.34 1017.58 1017.98 1017.75 1017.66 1017.83 1018.07 1018.58 1018.65 1018.41 1018.31 1018.54 1018.68 1019.48 1018.76 1019.23 1019.08 1018.68 1018.47 1018.56 1018.28 1018.49 1018.46 1018.57 1018.03 1017.86 1017.77 1018.51 1018.98 1019.14 1019.03 1018.92 1018.82 1018.76 1018.78
1013.25 1014.61 1015.32 1015.78 1016.23 1016.45 1016.62 1016.83 1017.05 1017.27 1017.68 1017.55 1017.34 1017.83 1018.15 1018.26 1018.14 1018.09 1017.91 1018.16 1018.41 1018.18 1018.45 1018.49 1018.19 1018.51 1018.58 1018.53 1018.52 1018.45 1018.30 1018.17 1017.72 1017.62 1017.45 1018.12 1018.58 1018.68 1018.54 1018.41 1018.32 1018.34 1018.34
1012.77 1013.83 1014.87 1015.49 1015.98 1016.23 1016.31 1016.48 1016.77 1016.84 1017.38 1017.03 1017.28 1017.54 1017.50 1017.51 1017.74 1017.84 1017.97 1018.02 1018.01 1018.07 1018.02 1018.16 1018.14 1018.23 1018.30 1018.36 1018.55 1018.77 1018.56 1018.19 1017.82 1017.60 1017.28 1017.48 1017.86 1018.13 1018.11 1017.97 1017.91 1017.78 1017.71
1011.93 1012.86 1014.25 1015.09 1015.54 1015.96 1016.28 1016.64 1016.85 1016.77 1016.50 1016.67 1016.82 1017.16 1017.76 1017.84 1018.14 1018.15 1018.39 1018.68 1018.67 1018.35 1018.22 1018.28 1018.28 1018.31 1018.39 1018.65 1018.73 1018.44 1018.34 1018.11 1017.77 1017.57 1016.98 1016.78 1017.11 1017.24 1017.55 1017.62 1017.43 1017.40 1017.29
1011.20 1012.25 1013.29 1014.17 1014.83 1015.57 1015.53 1015.99 1015.94 1016.03 1016.17 1016.42 1016.99 1017.44 1017.61 1017.91 1017.97 1018.05 1018.16 1018.46 1018.93 1018.95 1018.98 1019.01 1018.72 1018.90 1018.84 1018.65 1018.53 1018.18 1017.84 1017.61 1017.22 1017.12 1016.96 1016.58 1016.10 1016.41 1016.48 1016.66 1016.91 1016.86 1016.84
1010.60 1011.67 1012.69 1013.39 1014.09 1014.74 1015.01 1015.24 1015.42 1015.82 1016.33 1016.92 1017.23 1017.60 1017.84 1017.95 1018.04 1018.23 1018.30 1018.42 1018.47 1018.51 1018.46 1018.38 1018.50 1018.18 1018.14 1017.86 1017.52 1017.34 1017.06 1016.71 1016.46 1016.23 1016.15 1016.23 1016.14 1015.98 1015.90 1016.15 1016.13 1016.17 1016.13
1010.14 1011.17 1012.06 1013.08 1013.71 1014.34 1014.91 1015.09 1015.53 1016.11 1016.53 1017.04 1017.44 1017.72 1018.17 1018.20 1017.97 1017.96 1018.09 1018.42 1018.42 1018.30 1018.24 1018.27 1018.15 1018.29 1017.90 1017.73 1017.57 1017.30 1016.93 1016.64 1016.36 1015.89 1015.73 1015.59 1015.39 1015.21 1015.08 1015.33 1015.97 1016.10 1016.06
1010.08 1010.83 1011.77 1012.67 1013.41 1014.06 1014.86 1015.55 1015.97 1016.50 1017.16 1017.48 1017.69 1017.98 1018.19 1018.25 1018.27 1018.14 1018.35 1018.51 1018.42 1018.27 1018.34 1018.50 1018.68 1018.49 1018.45 1018.34 1018.09 1017.40 1017.18 1016.87 1016.54 1016.06 1015.84 1015.69 1015.67 1015.67 1015.62 1015.36 1015.38 1015.09 1015.30
1010.21 1010.66 1011.49 1012.21 1013.10 1013.80 1014.99 1015.47 1016.18 1016.56 1016.91 1017.18 1017.55 1017.91 1018.07 1018.26 1018.48 1018.42 1018.30 1018.55 1018.60 1018.59 1018.94 1019.03 1018.88 1018.59 1018.46 1018.57 1018.28 1017.50 1016.99 1016.21 1016.38 1016.46 1016.36 1016.19 1015.74 1015.66 1015.49 1015.33 1015.09 1014.34 1014.29
1010.02 1010.78 1011.55 1011.94 1012.78 1013.59 1014.60 1015.26 1015.60 1016.28 1016.74 1017.05 1017.58 1018.07 1018.34 1018.45 1018.59 1018.66 1018.79 1018.80 1018.87 1018.79 1019.12 1019.29 1019.29 1019.04 1018.66 1018.84 1018.61 1017.81 1016.61 1016.28 1015.63 1016.19 1016.49 1016.05 1015.92 1015.78 1015.68 1015.37 1015.18 1014.88 1014.43
1009.85 1010.59 1011.10 1011.49 1012.30 1013.09 1013.85 1014.87 1015.89 1016.71 1017.34 1017.35 1017.81 1018.09 1018.43 1018.65 1018.82 1018.92 1019.05 1019.10 1019.20 1019.15 1019.23 1019.52 1019.55 1019.39 1019.10 1019.04 1019.18 1018.78 1017.49 1016.81 1016.87 1016.84 1016.59 1016.16 1016.23 1016.17 1016.02 1015.75 1015.44 1015.02 1014.71
1009.24 1010.32 1010.93 1011.44 1012.07 1013.18 1013.72 1014.47 1015.06 1015.46 1015.94 1016.55 1017.19 1017.83 1018.41 1018.78 1019.01 1019.21 1019.24 1019.30 1019.44 1019.32 1019.56 1019.57 1019.57 1019.71 1019.58 1019.04 1019.09 1018.96 1018.99 1018.61 1017.71 1016.74 1016.66 1016.54 1016.47 1016.07 1015.86 1015.50 1015.22 1015.11 1014.54
1008.91 1010.21 1010.98 1011.53 1012.55 1013.43 1013.85 1014.10 1014.62 1015.20 1015.90 1016.57 1017.08 1017.77 1018.15 1018.63 1018.86 1019.00 1019.17 1019.22 1019.25 1019.24 1019.45 1019.60 1019.67 1019.81 1019.63 1019.45 1019.25 1019.01 1018.87 1018.51 1018.12 1017.57 1016.36 1016.28 1016.25 1015.86 1015.55 1015.20 1015.03 1014.87 1014.50
1008.93 1010.12 1011.18 1011.89 1012.75 1013.31 1013.72 1014.33 1014.51 1015.01 1015.60 1016.18 1016.94 1017.55 1018.03 1018.37 1018.71 1019.01 1019.09 1019.12 1019.37 1019.52 1019.65 1019.84 1019.94 1019.89 1019.79 1019.73 1019.48 1019.03 1018.75 1018.50 1018.04 1017.63 1016.79 1016.23 1015.73 1015.30 1015.03 1014.82 1014.30 1013.84 1013.84
Wind_Speed
14 17 11 10 10 9 12 14 15 15 15 15 14 12 12 12 10 10 10 10 11 11 12 12 11 12 11 11 10 11 12 11 10 10 9 9 8 9 9 8 11 12 8
17 18 12 11 11 11 12 15 16 16 16 16 15 12 12 12 11 10 10 9 10 12 12 12 12 11 11 10 10 11 10 10 9 7 3 11 10 8 8 10 15 11 9
18 18 17 12 12 12 14 15 16 16 16 16 15 14 12 12 11 10 9 9 10 12 12 11 11 12 11 10 10 11 9 8 6 3 7 6 11 8 7 8 9 11 11
18 17 17 13 12 11 13 15 15 15 15 15 15 14 13 12 11 10 9 8 9 10 11 11 11 11 10 9 8 7 6 4 3 7 4 6 8 7 6 8 7 7 7
18 17 16 13 13 11 12 14 14 15 13 14 14 13 12 11 11 9 8 7 8 10 11 11 10 10 8 7 6 5 5 4 2 11 7 7 7 9 2 2 1 2 9
17 16 17 13 13 12 13 13 14 15 14 13 12 12 12 12 11 9 7 6 7 8 11 11 9 9 8 7 5 5 5 6 9 3 1 7 4 7 4 4 5 4 4
16 15 18 12 13 14 15 14 14 14 13 13 13 12 12 11 11 8 7 6 7 7 8 11 9 7 6 6 5 3 3 5 9 4 2 1 6 4 4 3 2 1 2
15 16 17 13 13 12 13 12 12 12 12 12 12 12 11 11 10 8 6 5 5 6 7 9 8 7 5 4 3 1 2 5 7 3 4 2 10 1 2 3 3 3 3
13 14 16 16 15 10 11 11 11 11 11 11 10 9 8 8 8 7 6 5 4 4 4 5 6 6 6 4 4 2 1 5 10 3 5 4 11 4 6 6 6 6 5
12 13 13 15 15 15 13 9 10 10 10 10 9 8 7 7 6 6 5 6 4 3 2 2 3 3 4 4 5 5 5 8 11 6 6 0 5 5 9 9 9 8 8
9 12 12 13 14 13 13 11 8 6 6 7 8 7 8 6 7 8 8 6 5 4 3 2 2 3 4 8 7 5 6 7 6 5 5 11 4 9 11 12 10 11 10
13 13 11 12 13 12 10 11 11 10 9 9 9 10 6 3 2 2 3 4 4 4 4 5 5 5 10 4 7 10 7 5 6 6 6 7 6 11 14 14 12 11 12
14 10 11 10 8 10 7 6 5 4 3 5 7 7 5 4 4 5 3 6 5 8 6 9 8 7 3 4 3 3 4 5 5 5 4 6 8 13 14 15 15 14 12
14 13 12 12 10 10 7 7 7 6 7 5 6 6 4 4 5 3 2 2 3 2 1 4 3 3 6 6 6 7 7 7 6 5 7 9 9 14 15 16 17 17 16
14 15 15 13 12 10 9 7 7 6 6 7 6 7 5 4 3 3 1 2 2 1 3 3 4 4 5 5 6 8 9 11 11 7 6 11 12 13 17 18 19 20 19
15 16 16 15 13 12 8 9 7 8 8 6 6 5 5 3 3 4 3 1 2 4 4 4 5 5 5 6 6 8 8 9 10 12 9 9 13 14 16 19 20 20 21
14 15 17 17 16 14 12 11 8 7 6 6 5 6 5 5 3 3 2 3 3 1 1 1 2 2 3 4 6 6 7 9 9 10 9 9 9 15 16 17 19 20 21
15 16 16 13 15 14 11 10 8 7 5 6 6 5 6 5 6 5 5 4 3 3 2 1 1 3 3 5 5 6 7 8 11 11 11 9 9 10 7 15 15 19 21
15 17 17 16 16 15 12 9 8 9 7 7 6 6 8 6 6 5 5 5 2 2 1 2 2 4 5 6 7 8 8 9 11 11 12 12 12 10 8 4 7 13 17
14 16 17 15 16 16 10 9 8 8 7 7 7 7 8 7 7 5 5 3 1 0 1 4 5 6 6 6 9 9 8 9 10 9 10 9 11 10 11 8 9 9 13
14 17 17 18 17 12 9 9 9 8 9 8 7 9 8 7 6 4 4 3 2 3 5 5 5 6 6 7 9 9 10 9 5 5 7 9 9 10 11 10 10 9 8
16 16 18 18 19 14 12 10 10 9 8 8 8 8 7 7 6 5 4 3 4 3 4 5 6 6 5 7 8 10 7 8 6 9 12 8 12 8 13 15 14 14 13
17 18 18 19 18 15 16 10 10 9 8 8 8 7 6 6 6 5 5 5 4 4 4 5 5 6 6 6 6 7 7 9 11 11 13 9 11 11 11 13 16 15 16
16 15 17 15 18 13 18 15 18 11 11 8 8 7 7 7 6 5 5 4 4 3 4 4 5 6 5 7 6 7 8 10 12 11 8 11 11 12 14 12 13 16 16
17 16 14 16 17 18 11 15 14 12 10 9 8 10 8 7 6 6 4 4 3 2 3 4 5 5 6 7 8 7 8 8 9 11 13 12 11 11 11 11 12 12 14
16 16 15 17 14 13 15 13 11 15 14 10 9 8 7 6 5 5 3 2 1 3 4 5 6 7 7 8 8 8 8 10 10 11 13 14 15 13 12 13 12 11 11
Wind_Direction
152 135 136 127 117 113 114 116 115 114 111 112 110 114 110 105 102 98 93 89 91 92 92 93 94 89 89 92 81 68 58 54 63 71 68 66 68 64 54 18 331 78 71
140 144 138 132 127 125 126 123 119 117 120 118 116 112 110 112 109 105 101 103 103 103 102 97 94 95 95 92 87 75 68 58 51 49 95 117 72 60 52 36 22 73 80
146 145 155 138 136 134 133 125 123 124 123 122 122 123 123 123 119 118 119 114 109 112 107 104 103 105 107 106 96 84 71 58 52 35 283 46 72 46 41 41 39 45 62
145 152 152 143 141 139 133 126 126 127 128 131 134 135 134 132 131 133 128 116 114 114 114 108 104 106 105 100 99 74 68 55 3 285 251 10 90 83 35 29 24 22 47
149 156 143 145 143 143 133 132 132 130 135 137 138 136 133 133 132 131 123 126 126 122 115 114 112 107 99 89 80 70 46 18 289 258 36 34 24 82 36 299 109 66 16
153 154 138 143 146 148 145 143 142 141 144 139 135 136 137 139 140 138 132 118 110 118 123 119 124 123 119 110 86 55 35 347 277 68 106 109 7 81 84 61 48 40 37
152 144 158 144 151 156 152 150 149 146 144 142 143 145 147 146 145 145 140 127 120 121 135 128 132 131 128 124 113 83 38 331 324 355 316 330 78 94 106 115 112 97 87
150 147 152 153 153 154 154 151 153 149 148 150 149 151 152 147 145 144 143 139 132 126 113 122 133 138 142 131 110 62 19 319 254 297 286 258 95 153 190 182 189 197 183
149 159 156 165 159 152 153 155 159 154 153 152 153 150 144 139 142 148 150 147 139 133 133 132 138 144 153 163 172 178 290 306 291 310 286 280 128 203 236 211 211 218 224
155 159 165 165 169 169 164 161 163 157 159 152 150 137 133 139 145 145 160 158 156 157 156 150 149 156 169 192 205 203 223 246 262 291 258 357 122 241 247 239 226 226 232
166 164 170 177 172 175 172 162 158 148 131 134 143 130 166 189 174 169 91 139 177 185 197 206 217 220 235 216 208 229 247 264 298 276 274 109 201 246 250 252 242 232 240
170 174 175 183 177 175 176 160 180 164 180 186 186 174 208 154 162 288 114 174 201 210 222 225 240 247 234 255 174 192 241 325 283 289 286 130 229 250 252 249 245 235 240
171 169 177 175 157 177 157 171 164 167 173 188 189 189 147 176 208 207 185 184 195 181 221 198 195 227 302 298 301 297 309 269 283 287 288 158 246 263 265 256 250 241 237
168 173 177 176 173 177 168 176 177 179 180 208 182 181 181 203 202 218 212 165 204 196 294 235 249 274 272 271 280 293 292 288 288 294 283 179 228 256 258 256 251 248 246
176 173 179 179 178 175 185 171 186 187 181 192 187 184 204 201 182 203 167 250 305 288 238 254 267 283 298 299 312 301 294 297 287 278 285 174 207 241 255 254 254 251 246
178 177 167 181 180 180 176 176 177 191 181 187 177 175 200 218 199 208 186 221 262 275 319 318 325 313 315 324 307 295 293 294 289 291 285 280 198 214 239 254 253 254 254
181 173 172 177 175 181 184 182 187 179 182 172 163 186 181 208 163 189 134 66 41 54 65 348 304 354 265 257 259 258 274 268 273 274 276 284 277 210 217 230 248 252 253
183 175 176 171 174 179 176 175 178 162 157 136 148 121 114 137 128 127 126 129 127 123 149 182 284 278 283 291 289 287 273 279 287 283 272 286 289 297 237 226 237 243 249
185 178 176 170 171 171 168 163 146 135 130 125 123 113 107 105 110 98 88 91 92 80 55 339 308 311 305 306 313 306 303 305 301 296 300 299 286 277 304 276 237 254 261
180 180 173 169 166 167 140 136 126 125 123 124 125 123 130 110 109 112 109 106 239 255 352 350 333 343 327 333 323 312 313 303 308 319 317 318 313 305 289 314 305 287 230
179 177 172 170 168 156 141 148 138 140 141 133 123 124 121 112 105 102 97 103 25 24 18 11 348 343 331 347 313 324 300 275 295 337 327 309 305 310 315 301 302 303 290
184 167 179 176 166 168 156 159 155 151 145 131 125 117 113 117 106 104 98 81 42 60 39 17 3 342 340 359 337 316 329 302 321 331 308 307 312 319 318 314 322 307 305
185 178 183 176 169 175 154 142 140 130 141 138 137 135 124 127 124 115 102 73 64 21 36 19 15 8 341 332 348 315 318 323 324 302 320 302 332 313 307 305 310 309 309
187 184 181 175 166 163 158 157 163 163 159 149 149 138 143 138 124 112 100 86 65 49 41 21 1 334 324 322 324 327 318 314 314 310 311 316 309 313 308 303 313 304 303
179 176 171 169 160 164 160 165 164 163 142 151 150 151 146 145 143 135 129 111 85 15 21 338 319 314 315 322 320 317 313 300 300 303 305 311 308 313 312 307 303 296 300
171 164 162 163 154 154 154 156 162 157 157 155 157 157 157 156 153 135 130 119 37 357 337 310 306 299 305 301 299 300 303 308 305 306 303 307 306 307 309 306 301 291 307